Wind_Speed
41 41 41 41 41 41 41 41 41 41 41 40 40 39 38 38 38 37 37 37 36 37 37 36 36 36 35 34 33 32 32 32 31 31 31 30 30 30 30 31 31 32 33
44 44 43 43 43 43 43 43 43 43 44 43 42 42 41 40 40 41 39 39 39 39 39 39 39 38 37 36 36 35 34 33 33 32 32 32 32 32 32 32 33 34 34
45 46 46 46 46 46 45 45 45 45 45 45 45 44 43 42 41 41 41 40 40 40 40 40 40 40 39 39 38 36 35 35 34 33 33 34 34 34 34 34 34 35 36
46 47 48 48 48 48 47 47 47 46 46 47 47 46 45 44 43 42 42 42 41 41 40 40 40 41 41 40 38 37 36 36 35 35 35 35 36 36 35 35 36 36 37
48 49 49 50 50 49 49 49 48 47 47 47 47 47 46 45 45 44 44 42 42 42 42 42 41 41 41 40 39 39 38 37 37 37 36 37 37 37 37 37 37 38 38
50 50 50 50 51 50 50 50 49 48 48 48 48 48 48 47 46 46 45 43 42 43 44 43 42 42 42 41 41 40 40 39 39 38 38 38 39 39 39 39 39 39 39
51 50 50 50 50 50 50 50 50 49 49 49 48 49 49 48 47 47 45 44 43 42 42 43 43 42 42 42 43 42 41 41 41 40 40 40 40 41 41 41 40 40 39
50 50 50 50 50 50 50 51 51 51 51 50 50 49 49 48 48 47 45 44 45 44 44 42 43 43 43 43 44 44 43 43 42 42 42 42 42 41 42 41 41 40 39
48 48 49 50 50 50 51 51 51 51 51 51 50 50 50 49 49 47 46 45 45 44 43 43 44 44 44 44 44 43 43 43 42 42 42 42 41 41 41 40 40 39 38
47 48 48 48 49 49 50 50 51 51 51 51 52 51 51 50 50 50 47 46 45 45 45 44 45 45 45 45 44 43 44 44 43 43 41 41 41 41 40 40 40 40 39
45 45 46 47 47 48 48 49 50 51 50 50 51 51 51 51 51 50 48 46 45 45 45 45 44 45 45 45 44 45 45 45 44 43 42 41 41 41 40 40 40 39 39
43 44 44 45 45 46 47 48 48 49 49 50 50 51 51 50 50 50 49 47 46 45 45 45 45 45 45 45 45 45 45 44 45 44 43 42 41 41 41 41 41 40 39
41 41 41 41 42 43 45 46 48 48 50 50 51 51 50 49 49 50 50 48 47 46 46 46 46 46 45 45 45 44 45 44 45 44 43 42 41 42 42 42 41 40 40
40 40 40 40 41 42 44 45 46 48 49 50 51 50 49 49 50 50 50 49 48 47 46 45 45 45 45 45 45 46 46 45 44 45 43 42 42 42 42 42 41 40 40
39 39 40 40 40 41 42 44 45 46 49 49 50 50 49 49 49 49 50 50 49 48 47 46 46 45 44 45 46 46 47 46 45 45 43 43 43 43 42 41 41 40 39
38 38 38 40 40 41 42 44 45 46 48 48 49 49 49 48 48 49 49 50 51 50 48 47 48 46 45 45 45 45 45 45 45 45 44 43 42 43 43 42 41 40 40
36 37 38 39 40 41 42 43 43 44 44 45 46 47 47 47 48 49 49 50 50 49 48 47 48 48 46 45 45 44 43 43 44 44 43 43 42 42 42 41 40 39 39
35 36 37 38 40 41 41 42 42 42 42 42 43 45 46 47 47 48 48 48 48 47 47 46 46 46 45 45 44 43 42 43 43 43 43 42 42 41 40 39 39 39 39
34 35 37 38 39 40 40 41 42 42 41 42 42 43 45 46 47 47 47 47 46 46 45 45 44 44 44 44 44 43 41 41 41 41 41 41 41 40 40 39 39 38 38
34 35 35 36 37 37 38 39 39 40 40 41 42 42 43 44 45 46 46 47 47 46 45 43 42 42 42 42 41 41 40 39 39 39 39 40 39 39 39 39 39 38 37
30 32 33 34 35 35 36 36 36 36 37 37 38 39 40 40 41 42 44 45 45 45 45 43 42 41 39 39 39 39 39 38 37 38 38 40 39 39 38 37 37 36 35
28 30 31 32 32 33 34 34 34 33 33 34 35 35 35 35 36 38 39 41 41 41 42 42 41 39 38 38 38 37 37 37 37 39 38 37 38 38 38 37 36 34 33
29 29 28 29 30 31 32 32 31 31 32 32 33 33 33 33 34 35 37 39 39 38 38 38 37 37 37 37 37 36 35 35 36 37 37 36 36 35 36 35 34 33 33
27 28 28 28 28 29 30 29 30 30 30 30 31 32 32 33 34 35 35 36 38 39 38 37 37 37 37 36 37 37 36 35 35 36 37 35 34 35 34 34 33 32 32
27 27 27 27 26 27 28 28 28 28 29 29 31 32 32 33 34 35 35 35 35 36 36 36 37 37 37 37 36 36 35 34 34 34 34 34 33 33 33 32 32 31 30
25 25 26 26 26 26 26 26 26 27 27 28 29 30 32 33 33 34 34 34 34 33 34 34 35 36 37 36 35 35 34 34 33 33 33 32 32 31 31 30 30 30 29
Wind_Direction
257 258 257 258 259 259 259 258 257 258 258 258 259 261 262 263 264 265 265 265 266 267 267 268 268 269 271 271 273 273 274 276 277 279 280 282 284 286 288 292 295 297 298
258 258 257 258 259 259 259 258 257 257 258 258 259 260 262 263 264 265 266 266 266 266 267 268 268 268 269 270 271 272 272 274 275 277 279 280 282 285 287 290 293 295 296
259 259 258 259 259 259 258 258 258 257 257 257 257 259 261 262 264 265 266 266 266 266 267 268 268 268 268 269 270 271 272 273 273 275 277 279 281 283 286 288 291 293 294
259 258 259 258 258 258 258 257 257 257 258 257 257 258 260 261 263 264 265 266 266 267 268 268 268 267 267 269 269 269 270 271 272 274 276 279 281 283 285 287 289 291 292
259 259 259 258 257 256 256 256 256 257 258 258 258 258 258 260 263 264 265 266 268 268 268 268 267 267 267 267 268 269 269 270 271 272 275 278 280 282 284 285 287 289 289
260 259 257 256 256 254 255 255 255 256 257 258 258 258 258 259 261 263 265 266 267 268 269 267 266 267 267 266 267 267 268 269 270 271 274 277 279 280 282 283 285 287 288
261 259 257 256 254 253 252 253 254 255 256 257 258 259 258 259 260 262 265 266 267 268 268 267 267 267 266 267 267 266 267 267 268 270 273 276 277 278 280 282 284 285 286
260 259 258 257 256 255 253 252 253 254 255 257 259 259 257 258 259 261 264 267 267 267 268 267 267 266 265 267 267 267 266 266 267 269 273 275 277 278 280 282 283 284 285
260 259 258 257 257 256 255 255 255 256 255 257 259 260 259 259 259 260 262 265 266 267 266 266 266 266 266 268 267 266 265 265 267 269 271 273 275 277 279 281 282 283 284
261 259 257 257 256 256 255 256 256 257 258 259 260 261 261 262 261 261 262 263 265 265 265 264 265 265 267 267 266 266 265 265 266 268 270 273 274 275 277 279 281 282 282
260 259 259 258 256 256 256 256 257 257 258 259 260 261 261 261 261 262 262 263 263 264 264 264 264 265 267 266 266 265 264 265 266 268 270 272 273 273 275 277 279 281 282
257 257 258 258 258 258 257 257 256 257 258 258 259 260 260 260 260 261 262 262 262 262 264 264 264 265 267 266 266 265 263 264 266 268 270 271 271 272 274 276 278 279 281
256 255 256 257 258 259 259 258 257 257 258 257 258 260 259 259 260 261 262 262 262 262 263 263 263 264 265 265 265 264 263 263 265 266 268 270 270 271 273 275 277 278 279
255 254 256 257 258 259 259 258 258 258 257 258 258 260 260 260 260 261 262 262 262 262 263 262 262 263 264 263 263 262 263 263 264 265 267 269 269 271 272 275 276 276 277
255 253 256 257 258 259 259 260 260 260 260 259 259 260 260 260 260 260 261 261 262 263 262 261 260 261 263 263 264 262 262 263 263 265 267 268 269 270 272 274 274 276 276
254 254 257 258 258 260 261 263 263 262 261 260 260 260 259 260 260 261 261 261 262 263 262 262 260 259 261 263 264 264 263 263 263 264 267 268 269 269 271 272 273 275 274
256 256 258 260 260 262 262 263 263 262 261 260 260 258 258 260 260 260 260 261 261 262 262 263 262 261 261 263 263 263 263 264 264 264 266 268 269 269 269 270 272 273 273
259 259 260 261 263 263 265 265 263 263 262 261 261 260 259 260 260 260 259 260 261 260 262 262 262 262 261 262 262 263 264 264 264 265 266 267 269 269 270 272 272 272 273
261 260 262 263 264 264 265 265 264 263 263 262 261 262 261 260 260 259 258 259 260 259 260 260 261 262 262 261 261 261 264 264 264 266 267 267 269 270 271 272 272 271 272
264 264 264 265 266 266 266 266 264 263 264 264 264 264 262 261 261 260 259 259 259 259 259 259 259 260 260 259 260 262 262 263 265 266 267 267 268 269 270 271 271 270 271
268 267 266 265 264 265 266 266 265 264 264 265 265 264 262 262 261 260 259 259 259 259 258 258 257 257 257 257 258 260 261 263 265 266 268 268 268 269 269 270 269 269 270
272 271 268 265 264 264 265 266 266 264 263 264 265 265 263 263 262 261 260 258 257 258 257 256 256 256 256 256 258 259 260 262 264 265 267 268 268 267 267 267 268 267 269
274 273 269 266 264 263 264 265 263 264 264 265 266 265 263 264 263 260 260 258 257 257 257 256 255 255 255 254 255 257 259 262 264 266 266 267 268 268 268 267 267 268 270
272 270 268 268 267 267 266 263 263 263 266 267 267 268 267 264 262 261 260 260 258 256 256 255 254 253 253 252 254 256 259 261 263 265 266 266 268 269 269 267 265 266 267
271 269 269 269 267 267 265 263 266 268 269 267 268 267 265 264 263 261 261 260 260 258 257 255 252 250 251 253 254 257 259 262 264 266 266 265 266 267 267 266 264 263 265
272 272 271 270 269 268 268 268 268 269 268 268 268 268 266 264 263 262 261 260 260 258 257 254 251 251 252 253 255 258 261 264 266 266 265 264 264 265 265 264 262 261 262
Height
5773 5775 5776 5778 5779 5780 5781 5782 5783 5784 5785 5786 5787 5788 5789 5789 5790 5791 5791 5792 5792 5792 5792 5791 5792 5792 5792 5791 5791 5791 5791 5791 5790 5790 5789 5787 5786 5785 5783 5781 5779 5777 5774
5762 5763 5765 5767 5768 5770 5771 5771 5772 5773 5774 5776 5777 5778 5779 5779 5780 5781 5781 5782 5782 5782 5782 5782 5782 5782 5782 5782 5783 5783 5783 5782 5782 5782 5781 5780 5779 5777 5776 5774 5772 5769 5767
5751 5753 5754 5755 5757 5758 5759 5760 5761 5762 5763 5765 5766 5767 5769 5769 5770 5771 5771 5772 5772 5772 5772 5772 5772 5772 5773 5773 5773 5774 5774 5774 5774 5774 5773 5772 5771 5769 5768 5766 5764 5761 5759
5738 5740 5742 5743 5744 5746 5747 5748 5750 5751 5752 5753 5755 5757 5758 5759 5759 5760 5761 5761 5762 5762 5762 5762 5762 5762 5762 5763 5763 5764 5765 5765 5765 5765 5765 5764 5763 5761 5760 5758 5756 5753 5750
5725 5727 5729 5730 5731 5733 5734 5735 5737 5739 5740 5741 5743 5745 5747 5748 5749 5749 5750 5750 5751 5751 5751 5751 5751 5751 5752 5753 5753 5754 5755 5756 5756 5756 5756 5754 5753 5752 5751 5749 5747 5745 5742
5712 5713 5715 5716 5717 5719 5721 5723 5725 5727 5728 5729 5731 5733 5735 5737 5738 5738 5739 5739 5740 5740 5739 5739 5740 5740 5741 5742 5743 5744 5745 5745 5746 5746 5746 5745 5744 5743 5742 5740 5738 5735 5733
5698 5699 5701 5703 5704 5706 5708 5710 5713 5715 5716 5718 5719 5722 5724 5725 5726 5727 5728 5728 5729 5729 5728 5728 5729 5729 5730 5731 5732 5733 5734 5735 5736 5736 5736 5735 5733 5733 5732 5730 5728 5726 5724
5685 5686 5688 5689 5691 5693 5695 5698 5700 5702 5705 5706 5708 5709 5712 5715 5715 5717 5717 5717 5718 5717 5717 5717 5718 5718 5719 5720 5721 5722 5723 5724 5725 5725 5725 5724 5723 5722 5721 5720 5718 5716 5714
5672 5673 5675 5677 5679 5681 5683 5686 5688 5690 5692 5694 5695 5697 5699 5702 5705 5706 5706 5707 5707 5706 5706 5706 5707 5707 5708 5709 5710 5710 5711 5712 5714 5714 5714 5713 5712 5712 5711 5710 5708 5706 5704
5660 5661 5663 5664 5666 5669 5671 5673 5676 5678 5680 5682 5683 5684 5686 5688 5690 5693 5695 5696 5696 5696 5695 5695 5696 5696 5697 5697 5698 5699 5700 5701 5701 5702 5702 5702 5702 5701 5700 5699 5697 5696 5695
5648 5649 5651 5653 5655 5657 5659 5661 5663 5665 5667 5669 5671 5672 5673 5675 5676 5679 5682 5684 5684 5684 5684 5684 5684 5685 5685 5686 5687 5688 5688 5689 5690 5690 5691 5691 5691 5690 5690 5689 5688 5686 5685
5637 5639 5641 5642 5644 5645 5647 5648 5650 5652 5654 5656 5658 5660 5661 5663 5665 5666 5668 5670 5672 5673 5672 5672 5673 5674 5674 5674 5675 5676 5677 5678 5679 5679 5680 5680 5680 5680 5679 5678 5677 5676 5675
5627 5629 5630 5632 5633 5634 5635 5637 5638 5640 5641 5643 5645 5647 5649 5651 5652 5654 5655 5656 5658 5661 5661 5661 5661 5662 5662 5663 5663 5664 5665 5666 5667 5668 5668 5668 5669 5669 5669 5668 5667 5666 5665
5616 5618 5619 5621 5623 5624 5625 5626 5627 5629 5630 5631 5633 5635 5637 5638 5640 5641 5642 5643 5645 5648 5649 5650 5650 5650 5651 5652 5652 5652 5654 5655 5655 5656 5657 5657 5658 5658 5658 5657 5656 5655 5654
5606 5608 5609 5611 5613 5614 5614 5615 5616 5617 5618 5619 5621 5623 5624 5626 5627 5628 5629 5630 5633 5635 5637 5638 5638 5639 5639 5640 5641 5641 5642 5643 5644 5645 5645 5646 5646 5646 5646 5646 5645 5645 5644
5596 5598 5599 5601 5602 5603 5604 5604 5605 5605 5606 5607 5609 5611 5612 5613 5614 5616 5617 5618 5619 5622 5624 5627 5627 5627 5628 5629 5629 5630 5631 5632 5632 5633 5634 5634 5635 5635 5635 5635 5635 5634 5634
5586 5588 5589 5591 5592 5593 5593 5593 5594 5594 5594 5595 5596 5598 5600 5601 5602 5604 5605 5606 5607 5609 5612 5615 5615 5616 5617 5618 5618 5619 5619 5620 5621 5622 5622 5623 5623 5623 5623 5624 5624 5624 5624
5576 5578 5579 5580 5581 5581 5581 5581 5582 5582 5582 5583 5584 5585 5587 5588 5590 5591 5592 5594 5595 5597 5599 5602 5603 5604 5605 5606 5607 5608 5609 5610 5611 5611 5611 5612 5612 5612 5613 5613 5613 5613 5613
5567 5568 5568 5569 5570 5570 5570 5570 5570 5571 5571 5571 5572 5574 5575 5576 5577 5579 5580 5581 5583 5585 5586 5589 5591 5592 5594 5595 5596 5597 5598 5599 5600 5600 5600 5601 5602 5602 5602 5603 5603 5603 5603
5558 5559 5559 5559 5560 5560 5560 5560 5560 5560 5560 5561 5561 5562 5564 5564 5566 5567 5568 5569 5571 5573 5574 5577 5579 5581 5582 5583 5585 5587 5588 5589 5590 5590 5590 5591 5591 5591 5592 5592 5593 5593 5593
5550 5550 5551 5551 5550 5550 5550 5550 5550 5550 5551 5551 5551 5552 5553 5553 5554 5555 5556 5558 5559 5561 5563 5565 5567 5570 5571 5573 5575 5577 5578 5579 5580 5580 5581 5581 5582 5582 5582 5582 5583 5583 5584
5543 5543 5542 5542 5542 5542 5542 5541 5541 5541 5542 5542 5542 5542 5542 5543 5543 5544 5545 5547 5548 5550 5552 5554 5556 5559 5561 5563 5565 5566 5568 5570 5571 5572 5572 5571 5571 5572 5572 5573 5573 5574 5574
5535 5534 5534 5534 5534 5534 5533 5533 5533 5533 5533 5533 5533 5533 5533 5533 5534 5534 5535 5537 5538 5539 5541 5543 5546 5548 5551 5553 5556 5558 5558 5559 5561 5561 5562 5562 5561 5562 5562 5563 5564 5565 5565
5528 5528 5527 5527 5526 5526 5525 5525 5525 5525 5525 5525 5525 5524 5524 5524 5525 5525 5526 5527 5528 5529 5531 5533 5536 5539 5541 5543 5545 5548 5549 5550 5550 5550 5551 5552 5552 5553 5553 5554 5555 5556 5556
5521 5521 5520 5520 5519 5519 5518 5517 5517 5517 5517 5517 5516 5516 5516 5516 5516 5516 5517 5518 5519 5519 5520 5522 5525 5528 5531 5533 5535 5538 5539 5541 5541 5541 5542 5543 5544 5544 5545 5545 5546 5547 5548
5515 5514 5513 5513 5512 5511 5511 5510 5510 5510 5510 5509 5508 5507 5507 5507 5506 5506 5507 5507 5508 5509 5511 5513 5515 5518 5521 5523 5526 5528 5530 5531 5532 5533 5533 5534 5535 5536 5537 5537 5538 5539 5540